{"data":{"norad_id":53715,"intl_designator":"2022-107R","name":"STARLINK-4686","alt_names":[],"object_type":"PAYLOAD","status":"ACTIVE","operator":null,"country":"US","launch_date":"2022-09-05","launch_site_code":"AFETR","launch_vehicle":null,"mission":null,"orbit_class":"UNKNOWN","rcs_meters":null,"size_class":null,"mass_kg":null,"dimensions":null,"purposes":["comms"],"wikipedia_slug":null,"has_3d_model":false,"image_url":null,"decayed_at":null,"tle_current":{"epoch":"2026-05-25T00:55:17.308128Z","epoch_age_seconds":82457,"freshness":"FRESH","line1":"1 53715U 22107R   26145.03839477  .00000326  00000+0  38547-4 0  9993","line2":"2 53715  53.2167 271.0944 0000970 135.2716 224.8354 15.08836325205944","mean_motion":15.08836325,"eccentricity":9.7e-5,"inclination_deg":53.2167,"raan_deg":271.0944,"arg_perigee_deg":135.2716,"mean_anomaly_deg":224.8354,"bstar":3.8547e-5,"rev_number":20594,"period_min":95.437787130423,"perigee_km":539.08358650436,"apogee_km":540.42565747903,"semimajor_km":6917.8916219917,"source":"CELESTRAK","updated_at":"2026-05-25T13:38:17.534208Z"}}}